Location: Unspecified
(0.0000°N, 0.0000°E)
Time: 20:56:14
(UTC+01:00)

Daily predictions for brighter satellites

Satellite Brightness Start Highest point End
(mag) Time Altitude Azimuth Time Altitude Azimuth Time Altitude Azimuth
Thor Agena Rocket 3.8 19:28:44 10° NNE 19:33:31 45° ESE 19:38:19 10° S
Cosmos 2322 4.5 19:31:47 10° NNW 19:37:20 59° WSW 19:42:56 10° S
Sylda 4400 3.3 19:36:06 10° WNW 19:38:20 36° N 19:41:34 10° E
Cosmos 1437 Rocket 3.8 19:35:06 10° SSE 19:38:20 25° E 19:41:37 10° NE
Cosmos 1908 Rocket 3.7 19:33:59 10° S 19:38:21 54° E 19:42:42 10° NNE
YAOGAN 1 3.1 19:35:03 10° S 19:39:20 67° WSW 19:43:37 10° NNW
MOS 1 4.4 19:34:38 10° SSE 19:40:10 57° ENE 19:45:41 10° N
Cosmos 1812 4.2 19:41:05 10° NE 19:43:43 18° E 19:46:21 10° SE
Cosmos 1633 2.5 19:41:16 10° S 19:44:50 87° E 19:48:22 10° N
CENTAUR R/B 4.4 19:41:32 10° WSW 19:46:05 26° WNW 19:50:51 10° N
Meteor 1-27 Rocket 4.2 19:46:08 10° N 19:52:02 74° W 19:57:57 10° S
Cosmos 1371 Rocket 4.3 19:47:44 10° N 19:52:50 48° ENE 19:57:58 10° SSE
Cosmos 1867 3.5 19:48:37 10° NNW 19:54:00 69° ENE 19:59:23 10° SSE
Cosmos 1674 Rocket 4.3 19:50:42 10° NNE 19:54:28 30° E 19:58:14 10° SSE
SPOT 3 Rocket 3.5 19:51:49 10° SSE 19:56:56 66° ENE 20:02:04 10° N
NATO 3D Rocket 4.4 19:48:11 10° WNW 19:57:40 77° NNE 20:03:46 12° ESE
ARGOS Delta rocket 3.7 19:53:17 10° NNE 19:57:44 56° E 20:02:04 10° S
BREEZE-M DEB (TANK) 2.3 20:07:02 10° SSW 20:09:12 51° SE 20:11:01 22° NE
SJ-6B 3.8 20:08:57 10° SE 20:17:14 - N 20:11:28 24° E
Cosmos 2233 Rocket 4.5 20:06:31 10° NNW 20:12:39 64° W 20:18:44 10° S
Aurora 2 Rocket 3.0 20:10:23 10° SW 20:14:38 61° SSE 20:18:01 24° ENE
Okean 3 3.4 20:16:47 10° N 20:20:51 56° E 20:24:58 10° SSE
Cosmos 2219 Rocket 2.4 20:16:08 10° NNW 20:21:43 73° WSW 20:27:18 10° S
Cosmos 2056 Rocket 3.5 20:16:52 10° N 20:22:16 79° ENE 20:27:39 10° SSE
Lacrosse 4 Rocket 3.8 20:19:04 10° NW 20:22:45 27° WSW 20:26:30 10° SSW
OAO 3 Copernicus 4.3 20:21:35 10° SW 20:26:36 71° SE 20:28:41 35° ENE
Cosmos 1464 Rocket 3.9 20:21:21 10° N 20:27:21 59° E 20:33:26 10° SSE
ARIANE 5 DEB (SYLDA) 3.1 20:23:27 10° W 20:28:50 79° N 20:30:34 40° E
Transit 2A Rocket 4.3 20:24:52 10° NNW 20:29:19 71° ENE 20:33:34 10° SSE
Ariane H10 3.0 20:27:14 10° W 20:31:25 44° N 20:31:48 41° NNE
COSMOS 2455 2.8 20:26:17 10° SSW 20:32:17 84° WNW 20:38:01 11° NNE
Cosmos 2237 Rocket 2.1 20:28:34 10° N 20:34:06 61° ENE 20:39:39 10° SSE
ATLAS 2A CENTAUR R/B 3.5 20:28:59 10° NW 20:34:19 19° N 20:35:11 18° NNE
H-2A R/B 4.4 20:33:14 10° SSW 20:36:49 36° WSW 20:40:25 10° NW
Cosmos 1072 Rocket 4.4 20:31:16 10° N 20:37:33 85° E 20:43:56 10° S
ARIANE 5 R/B 4.0 20:19:28 10° W 20:41:08 78° S 20:43:29 36° ESE
FREGAT/IRIS 4.4 20:38:47 10° SSW 20:41:28 32° W 20:44:09 10° NW
Atlas Centaur 2 4.3 20:33:52 10° W 20:41:29 38° SSW 20:49:08 10° SE
Ariane H10 3.4 20:33:07 10° WSW 20:44:21 41° S 20:45:58 30° SE
Meteor 1-11 Rocket 3.5 20:39:24 10° S 20:44:56 87° E 20:49:55 13° N
Okean 2 Rocket 3.5 20:42:22 10° SSW 20:46:43 60° W 20:50:47 11° N
Meteor 1-4 Rocket 3.2 20:46:21 10° SSW 20:49:43 50° W 20:50:08 47° WNW
Meteor 1-18 Rocket 4.0 20:44:27 10° N 20:49:59 82° E 20:55:34 10° S
Iridium 4 Rocket 4.0 20:46:09 10° NNW 20:50:21 46° W 20:54:23 10° SSW
Cosmos 1536 4.4 20:49:08 10° S 20:50:56 25° S 20:50:56 25° S
Cosmos 1378 Rocket 3.8 20:49:58 10° N 20:54:22 70° W 20:58:48 10° S
Cosmos 2151 Rocket 4.1 20:50:29 10° S 20:53:51 49° SSE 20:53:51 49° SSE
Cosmos 2263 Rocket 2.2 20:53:27 10° SSW 20:59:00 75° WNW 21:01:00 40° N
Ariane H10 3.0 20:41:19 10° W 21:00:48 67° S 21:01:44 56° SE
Envisat 2.8 20:56:02 10° SSE 21:01:08 87° ENE 21:06:12 10° N
Cosmos 2034 Rocket 3.9 20:54:57 10° N 21:01:18 88° E 21:07:37 10° S
Meteor 1-5 Rocket 4.1 20:56:52 10° S 21:02:28 85° E 21:03:21 65° NNE
Lacrosse 5 rocket 2.5 20:59:21 10° SSW 21:01:46 35° SW 21:01:46 35° SW
ARIANE 5 DEB (SYLDA) 4.3 21:00:20 10° WSW 21:01:55 19° WSW 21:01:55 19° WSW
Ariane H10+ 2.8 21:02:27 10° W 21:03:45 29° WSW 21:03:45 29° WSW
Cosmos 2333 Rocket 4.1 21:01:58 10° NW 21:06:43 28° WSW 21:11:30 10° SSW
NOSS 3-3 (A) 4.4 21:16:04 10° NNW 21:24:15 83° ENE 21:25:50 63° SE
NOSS 3-3 (C) 4.4 21:16:10 10° NNW 21:24:21 83° ENE 21:25:42 66° SE
Ariane H10-3 4.5 21:21:48 10° WNW 21:22:55 15° WNW 21:22:55 15° WNW
ATLAS 2A CENTAUR R/B 4.3 21:25:20 10° WSW 21:31:01 35° W 21:31:01 35° W
